Temp
61 61 61 61 61 61 61 61 62 62 62 62 62 62 62 62 61 62 64 77 77 78 78 86 85 85 84 79 83 82 63 64 68 71 79 80 77 81 87 84 84 91 88 88 90
61 61 61 61 61 61 61 61 61 61 61 61 61 62 62 62 61 66 78 77 76 78 81 80 78 81 73 75 78 71 62 68 78 79 82 85 82 79 80 84 78 82 90 91 91
60 61 61 61 61 61 61 61 61 61 61 61 62 62 62 61 61 75 78 76 75 77 83 82 81 78 70 73 75 74 69 78 82 84 86 83 78 81 79 75 72 69 81 87 88
60 60 60 60 60 60 60 60 60 61 61 62 62 62 62 64 59 77 77 76 76 80 81 78 77 68 64 65 76 68 79 82 84 88 83 79 79 77 77 77 85 87 88 87 86
59 60 60 60 60 60 60 60 60 60 61 61 62 62 61 62 68 81 78 76 79 82 78 77 72 69 65 70 74 69 78 84 86 83 79 84 82 81 76 83 90 93 91 88 85
59 59 59 59 59 59 59 59 59 59 60 61 62 61 62 61 87 85 83 79 84 80 81 79 77 79 73 71 67 77 78 81 82 82 79 77 82 83 80 84 87 87 86 87 83
58 58 58 59 59 59 59 59 58 59 61 62 63 69 69 67 89 86 87 85 87 87 82 85 85 75 76 72 79 79 71 76 78 80 79 81 77 79 82 82 82 83 82 87 84
58 58 58 58 59 59 60 60 59 60 62 63 64 67 63 87 88 87 89 89 92 92 89 88 88 78 71 76 77 71 68 59 74 79 82 77 66 81 86 80 75 80 83 85 83
58 58 58 58 59 60 60 60 61 62 63 63 61 61 66 85 87 91 90 88 90 90 88 97 82 73 75 65 61 64 58 63 69 80 78 76 68 82 86 85 82 82 83 84 87
57 57 57 58 59 60 59 60 62 59 62 71 75 64 73 80 89 92 92 93 87 84 82 78 70 64 63 58 52 58 59 64 65 75 79 71 71 79 86 83 83 84 86 86 88
57 57 57 58 59 59 57 59 61 61 66 67 74 75 86 91 93 87 92 88 84 77 65 72 60 56 64 69 72 71 67 65 71 78 73 66 68 74 78 74 78 79 84 86 85
57 57 57 58 59 59 56 66 74 76 67 75 79 81 88 90 83 87 91 78 75 66 71 66 60 71 77 77 73 69 65 64 70 78 71 70 66 72 76 75 75 79 78 85 84
56 57 57 58 59 55 64 74 86 84 66 79 80 82 84 83 81 82 86 81 74 69 69 64 71 80 79 72 71 65 62 65 66 73 72 70 64 70 76 79 80 77 76 76 77
56 56 57 58 58 69 71 81 82 82 57 72 77 83 85 83 78 89 89 81 76 70 71 69 79 79 72 71 71 61 74 74 71 63 54 68 49 64 67 67 69 70 72 73 75
56 56 57 57 54 70 82 85 85 77 45 76 80 93 88 78 79 81 86 79 71 73 71 68 73 72 71 72 75 67 75 70 69 61 57 62 53 50 63 59 62 66 67 69 71
56 57 57 57 57 70 82 84 77 56 49 72 80 78 77 79 80 82 80 81 80 73 74 71 81 77 71 77 76 77 70 66 62 57 47 56 54 51 53 58 61 65 67 69 70
57 57 55 71 71 86 84 74 53 48 76 69 72 78 75 72 74 75 72 62 56 53 57 68 71 74 77 68 71 66 57 46 44 44 45 60 51 49 61 64 64 63 65 68 70
57 56 57 69 77 80 75 61 47 67 67 77 76 76 69 72 70 71 67 58 62 60 55 54 54 68 74 66 59 61 55 45 38 41 45 62 45 52 65 64 63 62 61 63 63
53 59 65 74 77 77 64 49 53 63 72 69 73 66 66 71 69 66 58 57 59 59 50 49 58 73 74 71 68 59 50 57 49 51 45 50 55 56 57 55 56 57 58 58 60
61 67 71 81 82 71 57 53 62 71 72 71 61 67 61 66 63 62 58 61 61 64 59 54 48 68 71 72 69 61 61 47 46 37 35 44 42 38 43 44 49 50 52 54 58
61 62 76 83 77 63 52 59 66 72 70 64 62 63 64 64 64 61 55 59 62 62 61 52 50 56 64 56 53 52 48 48 47 45 38 37 35 47 43 44 45 47 48 48 50
63 59 78 79 60 60 56 64 61 69 70 67 65 63 60 63 57 53 53 56 63 61 54 53 47 44 52 62 65 57 50 47 36 36 39 38 32 47 45 46 45 43 45 46 47
60 65 77 74 54 55 61 65 66 66 64 64 61 62 62 57 49 54 54 62 61 56 48 48 44 38 43 48 56 52 54 51 46 42 36 32 36 47 45 44 42 40 41 42 44
60 58 64 66 65 60 57 58 58 65 63 65 61 61 56 54 55 49 52 58 61 58 57 52 47 43 36 43 49 47 50 50 42 32 35 34 36 37 39 41 39 38 39 39 40
62 57 61 53 58 59 58 60 57 55 62 62 56 60 55 46 49 48 52 54 59 60 54 49 42 47 51 55 54 49 48 46 39 39 32 36 35 35 39 40 37 40 39 39 39
58 57 62 58 61 59 56 55 57 57 55 56 53 61 55 47 49 46 50 49 48 54 52 52 43 48 47 55 49 43 47 45 41 38 37 37 33 41 43 43 36 38 38 36 37
64 65 60 55 56 53 52 56 56 57 59 61 59 54 50 54 57 54 53 51 51 48 47 46 41 40 39 45 44 32 40 41 37 38 36 28 34 40 39 40 34 34 36 37 38
MSLP
1015.10 1014.90 1014.68 1014.49 1014.34 1014.19 1014.05 1013.94 1013.88 1013.77 1013.70 1013.68 1013.52 1013.45 1013.27 1013.05 1012.64 1012.33 1011.10 1008.46 1008.05 1007.60 1007.59 1007.41 1007.15 1006.80 1006.68 1006.87 1006.48 1006.24 1007.17 1006.39 1005.36 1004.63 1003.81 1004.62 1005.78 1006.72 1005.61 1005.94 1006.38 1004.77 1004.68 1005.68 1006.77
1014.98 1014.74 1014.49 1014.32 1014.16 1013.96 1013.79 1013.67 1013.62 1013.61 1013.56 1013.48 1013.48 1013.41 1013.25 1013.06 1012.52 1010.86 1007.88 1007.52 1007.39 1007.40 1007.45 1007.50 1007.24 1006.76 1006.96 1006.68 1006.44 1006.54 1006.74 1005.59 1004.48 1004.08 1004.35 1003.79 1004.48 1005.79 1005.98 1004.96 1006.88 1006.14 1005.57 1006.27 1006.74
1014.87 1014.56 1014.27 1014.00 1013.79 1013.69 1013.60 1013.55 1013.56 1013.50 1013.39 1013.38 1013.29 1013.27 1013.13 1013.10 1012.07 1008.20 1006.07 1006.94 1007.22 1007.35 1007.40 1007.30 1007.10 1007.04 1007.00 1006.43 1006.30 1005.97 1005.79 1004.94 1003.89 1003.50 1003.39 1003.34 1003.82 1004.62 1004.87 1006.29 1007.30 1008.38 1008.04 1007.76 1006.99
1014.72 1014.44 1014.17 1013.94 1013.75 1013.55 1013.40 1013.29 1013.37 1013.26 1013.20 1013.26 1013.23 1013.09 1013.02 1012.80 1010.37 1006.90 1006.58 1006.87 1007.24 1007.42 1007.50 1007.28 1007.17 1007.22 1006.88 1006.67 1005.86 1005.77 1004.91 1004.39 1003.35 1002.77 1002.83 1002.64 1003.82 1003.98 1004.53 1005.13 1006.20 1006.39 1006.68 1007.66 1007.92
1014.52 1014.20 1013.95 1013.76 1013.59 1013.42 1013.25 1013.20 1013.22 1013.18 1013.20 1013.22 1013.10 1013.02 1012.86 1011.86 1008.67 1006.44 1006.70 1007.04 1007.27 1007.27 1007.20 1007.28 1007.21 1007.00 1006.78 1006.10 1005.56 1005.41 1004.79 1003.90 1003.04 1002.65 1002.50 1002.25 1002.71 1003.58 1004.42 1004.30 1004.05 1004.21 1004.22 1005.06 1006.05
1014.37 1013.99 1013.72 1013.52 1013.38 1013.23 1013.09 1013.09 1013.11 1013.09 1013.14 1013.08 1012.96 1012.94 1012.40 1010.28 1005.76 1005.68 1006.30 1006.96 1006.74 1006.88 1006.60 1006.55 1006.26 1005.76 1005.87 1005.79 1005.64 1004.72 1004.36 1003.66 1002.99 1002.42 1002.28 1002.45 1002.32 1002.71 1004.22 1004.22 1004.11 1004.17 1004.66 1005.33 1006.01
1014.31 1013.91 1013.65 1013.42 1013.21 1013.07 1012.91 1012.84 1012.85 1012.93 1012.96 1012.92 1012.86 1012.52 1011.34 1008.16 1005.34 1005.48 1005.78 1005.80 1005.64 1005.81 1005.88 1005.46 1005.26 1005.55 1005.50 1005.46 1004.65 1004.44 1004.42 1003.64 1002.92 1002.47 1002.22 1002.09 1002.62 1002.44 1003.14 1003.72 1004.28 1004.34 1004.62 1004.77 1005.14
1014.18 1013.80 1013.56 1013.29 1013.04 1012.88 1012.78 1012.74 1012.78 1012.82 1012.77 1012.77 1012.72 1012.20 1009.88 1005.76 1005.33 1005.57 1005.20 1005.18 1005.00 1004.88 1004.96 1004.84 1004.65 1005.02 1005.41 1005.44 1005.12 1005.08 1004.32 1004.08 1003.05 1002.56 1002.10 1002.34 1002.74 1002.27 1002.15 1003.56 1004.34 1004.57 1004.27 1004.26 1004.53
1014.00 1013.70 1013.42 1013.10 1012.87 1012.62 1012.64 1012.66 1012.64 1012.61 1012.65 1012.62 1012.63 1011.75 1008.30 1005.11 1005.08 1004.78 1004.75 1004.81 1004.70 1004.90 1004.97 1004.92 1005.24 1005.71 1005.87 1006.17 1006.14 1005.31 1005.00 1004.27 1003.32 1002.26 1002.18 1002.24 1002.49 1002.20 1001.67 1002.16 1002.72 1003.50 1003.58 1003.68 1003.76
1013.89 1013.61 1013.28 1012.99 1012.77 1012.56 1012.57 1012.56 1012.43 1012.58 1012.48 1012.12 1011.30 1010.79 1007.34 1004.88 1004.22 1004.43 1004.43 1004.41 1004.63 1004.93 1005.24 1005.36 1005.85 1006.16 1006.22 1006.57 1006.33 1005.50 1005.09 1004.22 1003.38 1002.20 1001.99 1002.08 1002.36 1002.01 1001.62 1001.85 1002.07 1002.28 1002.27 1003.35 1003.07
1013.76 1013.52 1013.21 1012.94 1012.75 1012.60 1012.69 1012.60 1012.64 1011.87 1011.06 1009.33 1008.10 1007.09 1004.92 1004.23 1003.88 1004.19 1004.22 1004.40 1004.66 1004.98 1005.51 1005.54 1006.25 1006.03 1005.59 1005.23 1004.69 1004.66 1004.60 1003.94 1002.79 1001.97 1001.87 1002.18 1002.59 1002.50 1002.38 1002.26 1002.27 1002.43 1002.47 1002.27 1002.86
1013.63 1013.42 1013.12 1012.93 1012.76 1012.68 1012.83 1011.51 1008.81 1007.08 1007.68 1007.22 1006.48 1005.88 1004.61 1003.82 1003.84 1003.89 1004.00 1004.72 1004.91 1005.32 1005.32 1005.68 1005.34 1004.64 1004.27 1004.16 1004.33 1004.14 1004.18 1003.92 1003.08 1002.27 1002.22 1002.36 1002.80 1002.64 1002.64 1002.68 1002.82 1003.09 1003.51 1003.50 1002.96
1013.26 1013.09 1012.98 1012.87 1012.68 1012.79 1011.60 1009.47 1007.08 1006.63 1006.75 1005.15 1005.03 1004.24 1003.68 1003.92 1003.60 1003.55 1004.06 1004.45 1004.88 1005.18 1005.04 1005.01 1003.99 1003.68 1003.55 1003.34 1003.56 1003.73 1004.04 1004.05 1003.71 1003.04 1002.88 1003.30 1003.75 1003.81 1003.31 1003.33 1003.94 1006.32 1006.64 1006.63 1006.94
1012.85 1012.74 1012.83 1012.68 1012.94 1010.76 1009.83 1007.10 1006.66 1006.58 1006.43 1004.24 1003.68 1002.83 1003.20 1003.64 1003.68 1003.58 1003.89 1004.46 1004.58 1004.77 1004.60 1004.19 1002.88 1002.81 1002.78 1003.22 1003.50 1003.82 1003.68 1003.94 1003.96 1004.24 1004.74 1004.76 1006.32 1006.43 1007.11 1007.75 1008.52 1008.65 1008.77 1009.22 1008.94
1012.44 1012.43 1012.62 1012.72 1012.39 1009.94 1007.32 1006.37 1006.26 1006.59 1005.88 1003.36 1002.85 1002.62 1002.99 1003.70 1003.87 1003.94 1004.19 1004.51 1004.91 1004.91 1005.13 1004.16 1003.28 1002.79 1002.81 1003.37 1003.72 1004.08 1004.07 1004.37 1004.73 1005.35 1006.03 1006.46 1007.96 1010.63 1010.47 1010.84 1011.48 1011.41 1011.40 1010.90 1010.97
1012.08 1012.14 1012.50 1012.68 1011.94 1008.38 1006.70 1006.32 1006.62 1007.11 1004.69 1002.96 1002.79 1002.82 1003.33 1003.66 1003.84 1004.38 1004.64 1004.96 1005.03 1005.36 1004.96 1004.48 1003.42 1003.18 1003.24 1003.50 1004.02 1004.25 1004.63 1005.16 1005.75 1006.82 1007.85 1007.78 1009.18 1012.91 1013.00 1013.77 1013.63 1013.34 1012.72 1012.14 1011.62
1011.81 1011.86 1012.26 1010.62 1008.90 1006.98 1006.70 1006.99 1007.42 1006.13 1003.08 1003.36 1003.06 1003.14 1003.50 1004.12 1004.61 1004.81 1005.33 1006.78 1007.58 1007.33 1006.55 1005.47 1004.42 1004.16 1003.93 1004.10 1004.71 1005.58 1006.40 1007.24 1007.83 1008.43 1009.08 1009.13 1011.95 1014.87 1015.25 1015.28 1015.24 1015.02 1014.35 1013.71 1013.24
1011.80 1011.88 1011.02 1010.00 1008.36 1008.01 1007.62 1007.98 1007.47 1005.28 1004.59 1004.06 1003.82 1003.66 1003.92 1004.67 1005.46 1005.92 1006.79 1008.29 1009.07 1009.13 1008.63 1007.62 1006.48 1005.52 1005.68 1005.93 1006.55 1006.99 1007.75 1009.01 1009.60 1009.82 1010.39 1010.99 1014.36 1016.84 1016.85 1017.22 1017.34 1017.35 1016.76 1015.96 1015.09
1011.76 1011.42 1010.52 1008.36 1008.02 1007.94 1008.50 1008.38 1007.28 1006.61 1005.90 1005.39 1004.84 1004.60 1004.83 1005.36 1006.20 1007.04 1008.68 1009.86 1010.65 1010.63 1010.63 1009.62 1008.15 1007.11 1006.90 1006.96 1007.36 1008.07 1009.13 1009.72 1010.67 1010.84 1011.80 1014.10 1015.91 1017.18 1019.16 1019.37 1019.54 1019.17 1018.16 1017.22 1016.69
1011.59 1010.52 1008.75 1007.10 1007.10 1007.85 1008.64 1008.09 1007.56 1007.52 1007.07 1006.47 1005.92 1005.30 1005.40 1005.70 1007.01 1008.03 1009.51 1011.30 1011.39 1011.49 1011.40 1011.47 1010.27 1008.46 1007.83 1007.86 1008.57 1009.34 1010.45 1011.14 1012.19 1013.35 1014.36 1017.51 1019.16 1021.49 1021.75 1021.88 1021.67 1020.81 1020.14 1019.63 1018.77
1011.52 1009.93 1007.26 1006.68 1007.16 1008.22 1008.66 1008.01 1008.16 1008.33 1008.06 1007.85 1007.26 1006.62 1006.60 1006.81 1007.65 1009.26 1011.10 1012.55 1012.64 1012.46 1012.28 1012.66 1012.01 1010.68 1009.65 1010.74 1010.98 1011.38 1012.76 1013.58 1014.20 1015.15 1016.46 1018.82 1022.69 1024.69 1024.90 1024.72 1023.96 1023.50 1023.18 1022.28 1021.18
1010.86 1009.24 1007.02 1006.67 1007.96 1008.04 1008.41 1008.48 1008.66 1008.86 1008.64 1008.57 1008.37 1008.15 1008.24 1008.40 1009.46 1010.94 1012.54 1013.19 1013.57 1013.46 1013.69 1013.95 1013.54 1012.85 1012.47 1012.29 1012.50 1013.54 1014.83 1015.69 1017.08 1018.10 1019.09 1020.53 1024.66 1026.22 1025.84 1025.46 1025.54 1025.52 1025.21 1024.50 1023.66
1010.87 1008.69 1006.96 1007.04 1007.95 1008.42 1008.94 1009.46 1009.63 1009.53 1009.70 1009.44 1009.56 1009.68 1009.70 1010.16 1011.46 1012.52 1013.64 1014.37 1014.47 1014.69 1015.14 1015.34 1014.91 1014.29 1014.15 1013.91 1014.05 1015.07 1016.22 1017.21 1018.29 1019.34 1021.28 1022.98 1023.65 1024.82 1025.54 1025.60 1026.12 1026.19 1026.15 1025.88 1025.15
1011.28 1008.99 1008.00 1007.69 1007.99 1008.67 1009.60 1010.30 1010.64 1011.00 1010.78 1010.52 1010.58 1010.62 1010.83 1011.46 1012.20 1013.83 1014.69 1015.19 1015.30 1015.53 1015.83 1015.90 1015.66 1015.70 1015.60 1015.64 1015.97 1016.90 1018.04 1019.16 1020.18 1022.24 1023.54 1025.65 1025.80 1024.81 1024.78 1025.43 1026.34 1026.93 1027.28 1026.89 1026.19
1010.68 1010.38 1009.88 1009.70 1009.60 1009.75 1010.22 1010.53 1011.19 1011.63 1011.74 1011.64 1011.59 1011.52 1011.90 1012.81 1013.77 1014.85 1015.50 1015.80 1015.96 1016.07 1016.18 1016.47 1016.77 1016.63 1016.52 1016.73 1017.44 1018.77 1020.04 1021.40 1023.16 1024.86 1026.19 1027.32 1027.78 1028.57 1028.48 1028.47 1028.98 1029.02 1028.52 1027.53 1026.68
1011.27 1011.16 1010.36 1010.78 1010.66 1010.89 1011.37 1011.47 1011.81 1012.40 1012.92 1012.53 1012.49 1012.42 1013.25 1014.16 1014.18 1015.29 1015.85 1016.19 1016.59 1016.67 1016.85 1017.10 1017.58 1017.47 1017.67 1017.94 1019.43 1021.02 1022.30 1023.54 1025.21 1026.88 1027.67 1028.33 1029.07 1029.52 1029.46 1029.41 1029.91 1030.03 1029.72 1029.07 1028.22
1012.05 1011.24 1010.95 1011.76 1012.02 1012.31 1013.05 1012.85 1013.28 1013.53 1013.65 1013.46 1013.50 1013.90 1014.67 1015.34 1015.39 1015.83 1016.31 1016.73 1017.31 1017.46 1017.89 1018.07 1018.39 1018.63 1018.78 1019.72 1020.55 1022.94 1024.70 1025.54 1027.40 1028.66 1029.31 1029.94 1030.60 1030.41 1030.25 1030.18 1030.74 1030.49 1030.19 1029.69 1029.02
Wind_Speed
11 11 11 11 10 9 9 9 9 8 7 9 9 10 9 10 14 3 8 14 8 8 2 7 8 9 8 7 10 7 4 11 12 9 9 20 11 10 3 4 3 9 13 21 15
12 12 11 11 10 10 9 8 9 8 7 8 8 8 8 8 4 10 13 8 8 6 3 6 10 9 5 7 7 3 4 11 10 8 8 5 16 17 3 10 10 12 16 19 18
13 13 12 12 12 10 9 8 8 8 7 8 8 7 7 6 4 9 5 15 8 5 5 5 9 8 6 6 9 9 12 15 18 10 7 4 5 6 11 13 16 2 5 8 10
13 13 12 11 11 10 10 9 8 7 7 7 6 6 6 5 0 1 7 9 8 5 5 4 7 7 4 6 9 6 14 16 19 14 6 3 9 2 2 6 25 20 15 2 7
13 13 13 12 11 10 9 8 8 7 7 7 5 5 3 3 11 7 10 7 5 4 5 8 7 7 7 7 7 6 13 15 16 11 5 2 3 6 9 11 21 21 19 18 12
13 13 13 12 11 10 8 7 7 7 6 5 4 3 2 5 4 14 10 8 8 8 8 9 10 11 8 8 5 10 9 15 11 11 6 2 5 6 9 11 18 19 22 16 8
12 12 12 12 11 10 8 7 6 7 6 5 3 4 5 16 4 10 12 8 8 10 10 10 10 2 6 8 9 10 8 11 7 8 6 6 7 5 10 14 15 17 17 19 16
13 11 12 11 10 9 7 6 6 6 6 4 2 4 9 8 15 14 7 9 8 7 5 7 8 5 3 8 10 8 6 5 9 8 7 3 8 8 7 22 19 22 19 18 18
13 12 12 11 10 7 4 5 5 5 5 3 3 3 9 4 5 7 7 9 8 5 5 7 5 4 7 6 7 6 6 8 11 12 8 8 8 8 11 7 8 19 18 18 20
15 13 11 10 9 3 3 4 4 2 4 6 8 4 8 6 7 9 9 10 4 5 5 5 2 3 4 0 8 9 5 8 8 11 15 9 10 10 16 9 7 5 9 19 19
14 14 11 9 8 3 2 2 1 1 6 11 8 7 5 5 4 3 8 5 4 4 6 7 3 8 15 15 15 11 5 7 7 9 7 3 2 5 5 3 8 7 5 6 11
14 13 11 8 5 1 3 4 11 2 6 19 19 16 18 1 6 7 7 5 7 7 8 4 10 13 13 13 8 5 6 9 9 9 4 7 4 5 6 5 4 8 5 8 7
14 11 9 6 1 2 6 10 11 12 3 7 15 13 9 1 6 10 9 8 7 8 10 10 13 18 9 4 6 4 3 8 8 8 7 6 8 7 9 6 11 25 24 26 24
12 9 7 4 0 4 6 14 16 2 3 6 11 3 9 7 4 5 7 6 6 8 10 9 10 9 4 3 4 6 9 5 4 4 1 6 4 7 17 23 25 24 24 21 24
11 8 7 11 6 4 8 5 7 5 3 12 7 6 8 5 6 5 3 3 8 13 7 15 8 5 6 5 8 1 7 7 5 5 7 10 7 5 18 22 20 22 22 23 22
10 6 6 3 4 12 13 6 3 1 6 6 6 8 8 9 4 6 4 5 6 9 10 10 10 5 4 5 4 8 7 8 5 1 3 7 8 12 11 13 18 18 21 22 22
10 6 7 8 5 9 5 4 1 4 6 6 8 8 9 5 2 3 5 8 6 7 5 9 8 6 8 5 9 11 9 3 4 1 5 11 18 7 13 14 16 18 20 21 21
7 5 10 7 10 11 4 3 4 9 9 6 2 3 6 8 2 1 5 5 10 7 4 5 4 5 8 6 3 5 0 4 2 2 3 11 8 9 18 24 24 22 21 24 24
6 3 5 6 11 3 3 2 3 6 6 10 3 4 3 8 4 2 6 4 4 8 5 6 4 9 7 3 4 6 5 4 1 5 5 7 16 21 20 23 24 24 25 27 26
2 3 5 7 5 2 1 5 3 5 7 4 4 7 6 11 6 8 6 5 5 7 4 7 4 7 5 4 10 7 4 6 5 1 2 14 10 9 22 24 23 25 26 25 25
1 3 2 5 5 1 3 1 5 7 8 6 7 5 5 3 3 4 7 6 7 7 5 5 1 3 8 6 7 7 6 6 0 1 1 4 4 12 14 16 18 21 23 25 26
2 2 2 2 2 4 1 4 1 4 2 4 5 6 6 5 8 7 7 6 10 8 5 5 1 4 8 8 14 11 7 6 5 6 3 4 3 10 15 16 17 17 20 21 23
2 4 2 3 2 1 6 10 10 5 6 5 4 6 5 4 6 9 4 9 8 7 4 5 2 1 4 3 8 8 8 6 3 3 3 2 4 18 19 20 19 20 21 20 22
3 3 3 2 1 4 6 5 5 9 6 5 4 2 1 6 8 6 6 6 7 5 3 1 3 5 4 6 4 7 14 16 10 6 5 8 15 29 31 30 23 22 22 22 22
2 0 2 3 6 7 7 5 8 3 5 7 3 4 4 4 9 8 7 4 5 2 2 4 4 6 5 10 14 18 16 18 19 10 7 10 11 17 19 20 15 19 22 25 26
3 4 5 4 6 8 6 7 9 10 8 3 2 8 15 10 5 8 7 5 4 6 5 4 1 4 1 14 22 19 17 16 14 14 10 9 7 13 15 16 15 17 19 20 22
5 5 2 3 7 7 6 9 8 3 8 13 6 13 15 11 11 8 8 8 6 5 3 3 4 1 3 20 14 13 16 13 15 14 6 9 10 13 14 15 12 14 15 19 20
Wind_Direction
337 332 326 318 310 302 293 293 293 294 300 299 308 310 316 323 302 217 241 229 189 220 290 286 295 277 257 253 271 289 333 273 277 291 339 160 131 184 271 12 328 301 142 150 154
338 333 327 320 313 307 302 300 299 297 299 302 302 306 320 329 269 245 232 208 171 175 245 272 275 265 239 249 263 247 255 262 269 292 322 71 112 159 163 104 27 24 112 139 152
338 334 330 327 321 313 305 298 291 291 297 294 301 312 321 312 302 248 271 183 181 198 257 279 294 284 246 229 249 254 250 274 281 284 300 68 68 156 140 123 115 116 59 151 166
337 336 332 326 319 312 306 302 293 292 294 291 305 319 326 247 280 52 148 156 186 237 250 269 274 295 289 255 248 235 263 266 277 286 307 29 149 157 43 132 145 144 139 158 238
335 334 332 327 321 312 303 298 290 286 285 291 308 315 277 227 251 158 160 166 178 180 218 228 250 251 254 259 272 242 253 263 271 278 249 214 288 200 142 164 150 183 169 181 180
333 332 331 327 322 312 299 284 278 278 278 285 296 312 240 257 221 158 176 158 221 196 223 230 237 230 250 259 257 253 254 255 263 277 299 262 216 313 182 151 159 159 184 192 193
329 330 328 325 319 309 296 278 268 269 266 272 292 273 263 242 299 178 180 199 201 197 228 241 241 280 314 320 274 287 293 300 274 251 254 289 288 257 160 152 172 190 197 184 194
329 327 325 322 317 305 285 266 257 261 267 268 271 261 256 246 244 281 215 235 228 229 264 321 339 320 9 307 321 306 327 312 286 299 257 139 255 266 207 156 182 205 194 195 204
330 326 323 323 320 305 270 260 251 257 254 208 219 232 262 302 223 232 232 235 193 234 277 272 13 294 306 271 318 295 232 248 265 244 227 197 235 262 284 266 182 193 204 202 203
330 324 322 322 321 321 258 253 230 260 234 202 257 286 268 230 204 199 230 243 186 206 243 205 224 232 281 152 234 250 233 267 242 258 233 196 213 230 244 254 251 240 190 188 191
328 320 317 316 318 308 288 204 326 258 245 199 199 236 248 173 78 255 201 223 250 225 227 233 154 212 226 222 230 250 293 320 308 320 41 107 124 232 258 343 343 336 248 182 181
324 315 310 307 316 75 286 253 262 286 273 220 250 242 260 180 196 202 181 186 217 236 233 273 230 236 236 241 221 3 357 316 310 315 346 312 349 352 355 322 315 322 338 293 330
318 307 299 293 316 148 236 246 279 306 291 229 211 231 218 175 270 169 164 229 254 233 246 221 244 228 234 350 359 323 255 269 261 293 332 2 350 334 304 314 349 36 45 40 35
312 300 276 231 245 210 227 243 247 181 310 242 201 192 145 207 203 55 171 224 269 259 269 260 259 257 131 298 285 272 256 287 306 50 266 65 288 352 38 52 36 34 30 34 31
311 284 243 232 320 259 251 202 22 48 286 145 165 124 178 181 124 177 87 324 265 283 337 281 319 219 163 60 2 360 10 359 344 351 39 310 78 288 39 46 37 32 25 26 28
314 260 189 196 220 247 293 353 53 1 244 143 133 184 157 219 144 141 193 230 291 284 287 298 305 330 96 65 326 313 341 329 327 67 304 246 132 19 35 40 36 32 27 22 20
331 206 193 308 241 322 344 5 350 233 158 144 161 153 186 101 48 202 173 51 38 13 354 313 285 59 22 42 27 26 26 291 325 10 209 90 58 90 61 51 48 30 19 16 16
344 148 233 250 296 307 5 2 250 331 53 90 126 251 158 127 112 351 118 101 32 357 314 348 3 39 27 57 358 348 315 115 299 342 301 72 122 85 47 35 29 22 19 11 15
325 205 260 242 231 256 43 252 345 6 351 343 152 235 178 157 131 134 85 45 58 22 38 360 99 98 64 358 22 330 55 249 350 297 38 97 104 62 25 25 17 17 13 5 359
332 275 236 211 182 59 120 256 73 28 346 309 288 201 234 186 161 174 111 22 11 34 7 340 325 45 35 23 19 89 12 18 354 258 251 91 62 17 12 11 7 7 7 2 358
189 265 221 242 98 62 218 66 101 45 3 3 344 319 347 4 225 82 39 54 18 343 4 38 358 312 55 39 44 19 23 2 30 83 116 111 75 36 25 12 5 14 8 357 354
275 278 208 122 94 216 136 55 85 56 48 10 328 351 14 27 37 74 86 44 10 358 39 16 345 31 98 65 82 81 75 51 87 345 15 108 130 62 32 12 33 15 6 357 353
267 235 254 98 214 309 106 73 48 31 23 1 34 4 359 59 98 102 90 47 35 32 40 351 0 25 72 58 35 67 59 52 34 53 39 88 243 32 23 16 23 11 5 358 354
293 342 352 97 260 66 106 102 102 20 19 25 16 23 335 69 49 107 105 53 39 57 307 72 40 82 126 104 63 57 56 50 45 56 322 59 344 359 3 0 9 10 2 355 352
262 89 147 9 5 63 27 119 109 128 23 354 323 289 82 92 89 97 94 138 77 38 33 67 78 44 26 93 72 60 53 57 58 17 65 354 25 9 353 350 19 2 352 352 352
39 18 7 19 354 71 7 10 93 55 8 141 310 70 66 40 142 140 154 140 93 43 22 22 63 39 351 99 81 62 41 60 67 34 42 22 10 360 350 343 22 5 358 351 349
347 334 79 301 41 65 12 35 76 96 345 34 6 81 60 54 71 76 86 71 66 71 36 49 23 57 9 118 117 49 17 71 81 55 50 26 347 351 352 348 24 3 359 349 346